Location: Baia Mare
(47.6567°N, 23.5850°E)
Time: 06:23:11
(UTC+03:00)

ISS - Pass Details

Date: 23 March 2020
Orbit: 417 x 423 km, 51.6° (Epoch: 29 March)

Event Time Altitude Azimuth Distance (km) Brightness Sun altitude
Rises 20:01:03 0° 253° (WSW) 2,353 1.0 -13.7°
Reaches altitude 10° 20:03:09 10° 256° (WSW) 1,492 0.0 -14.0°
Maximum altitude 20:06:29 68° 340° (NNW) 454 -3.5 -14.6°
Enters shadow 20:08:34 21° 60° (ENE) 998 -2.2 -14.9°
